Regional Weather Roundup
Issued by NWS

Home | Current Version | Previous Version | Graphics & Text | Print | Product List | Glossary On
Versions: 1 2 3 4 5 6 7 8 9 10 11 12 13 14 15 16 17 18 19 20 21 22 23 24 25 26 27 28 29 30 31 32 33 34 35 36 37 38 39 40 41 42 43 44 45 46 47 48 49 50
734
ASUS43 KOAX 230202
RWRNE

WEATHER ROUNDUP FOR NEBRASKA
NATIONAL WEATHER SERVICE OMAHA NE
900 PM CDT SUN APR 22 2018

NOTES: SATELLITE DATA IS BEING USED TO AUGMENT CLOUD COVER ABOVE
       12000 FEET.
       "FAIR" INDICATES FEW OR NO CLOUDS BELOW 12,000 FEET WITH NO
       SIGNIFICANT WEATHER AND/OR OBSTRUCTIONS TO VISIBILITY.


NEZ001>004-019>022-054>056-230300-
NEBRASKA PANHANDLE

CITY           SKY/WX    TMP DP  RH WIND       PRES   REMARKS
SCOTTSBLUFF    CLEAR     54  43  66 E12       30.09R
ALLIANCE       CLEAR     48  40  73 SE13      30.10R
CHADRON        CLEAR     53  42  66 SE8       30.06R
GORDON         FAIR      53  39  60 SE10      30.10R
KIMBALL        CLEAR     48  38  68 SE9       30.12R
SIDNEY         CLEAR     46  29  51 SE8       30.13R
$$

NEZ057>060-069>072-079>082-230300-
SOUTHWEST NEBRASKA

CITY           SKY/WX    TMP DP  RH WIND       PRES   REMARKS
NORTH PLATTE   CLOUDY    52  42  69 SE3       30.16S
IMPERIAL       CLEAR     49  38  65 MISG      30.15S
LEXINGTON      CLEAR     52  42  68 CALM      30.16S
MCCOOK         PTCLDY    51  38  60 E3        30.15R
OGALLALA       CLEAR     49  38  66 S5        30.15S
$$

NEZ005>010-023>029-035>040-094-230300-
NORTH CENTRAL NEBRASKA

CITY           SKY/WX    TMP DP  RH WIND       PRES   REMARKS
VALENTINE      PTCLDY    55  39  54 SE10      30.14R
AINSWORTH      CLEAR     49  40  71 S6        30.16R
BROKEN BOW     CLEAR     47  38  71 CALM      30.16R
O`NEILL        CLEAR     56  36  46 E3        30.17R
ORD            CLEAR     50  36  58 SW5       30.15R
THEDFORD       CLEAR     51  38  59 S7        30.16S
$$

NEZ041-046>049-061>064-073>077-083>087-230300-
SOUTH CENTRAL NEBRASKA

CITY           SKY/WX    TMP DP  RH WIND       PRES   REMARKS
GRAND ISLAND   CLOUDY    57  39  51 SE5       30.16R
AURORA         CLOUDY    58  34  39 CALM      30.16R
HASTINGS       CLOUDY    57  37  47 SE5       30.16R
HEBRON         CLOUDY    58  40  51 CALM      30.14S
HOLDREGE       CLOUDY    55  41  58 CALM      30.15R
KEARNEY        MOCLDY    55  40  56 SE8       30.17R
YORK             N/A     57  36  44 CALM      30.15R
$$

NEZ011>018-030>034-042>045-230300-
NORTHEAST NEBRASKA

CITY           SKY/WX    TMP DP  RH WIND       PRES   REMARKS
NORFOLK        CLEAR     55  33  43 E3        30.15R
ALBION         MOCLDY    55  35  47 CALM      30.16R
BLAIR          CLOUDY    62  32  32 NE6       30.16R
COLUMBUS       PTCLDY    55  34  45 E5        30.16R
FREMONT        CLOUDY    62  32  31 E5        30.16S
TEKAMAH        MOCLDY    55  32  41 E8        30.16R
WAYNE          CLEAR     48  31  51 E8        30.17R
$$

NEZ050>053-065>068-078-088>093-230300-
SOUTHEAST NEBRASKA

CITY           SKY/WX    TMP DP  RH WIND       PRES   REMARKS
LINCOLN        CLOUDY    57  36  45 NE7       30.15R
OMAHA EPPLEY   CLOUDY    58  31  35 N5        30.15R
BEATRICE       MOCLDY    62  36  38 E6        30.12S
FALLS CITY     PTCLDY    59  36  42 N5        30.10R
NEBRASKA CITY  CLEAR     61  34  37 E9        30.14R
$$

NEZ044-045-051>053-067-230300-
OMAHA AREA

CITY           SKY/WX    TMP DP  RH WIND       PRES   REMARKS
OMAHA EPPLEY   CLOUDY    58  31  35 N5        30.15R
BLAIR          CLOUDY    62  32  32 NE6       30.16R
FREMONT        CLOUDY    62  32  31 E5        30.16S
MILLARD        CLOUDY    65  32  29 E3        30.15R
WAHOO          CLOUDY    61  28  29 E8        30.15S
$$




USA.gov is the U.S. government's official web portal to all federal, state and local government web resources and services.